TimeCST,TemperatureF,Dew PointF,Humidity,Sea Level PressureIn,VisibilityMPH,Wind Direction,Wind SpeedMPH,Gust SpeedMPH,PrecipitationIn,Events,Conditions,WindDirDegrees,DateUTC
12:15 AM,41.0,32.0,70,30.30,10.0,ENE,3.5,-,N/A,,Clear,70,2012-12-05 06:15:00
12:55 AM,39.2,33.8,81,30.29,10.0,North,3.5,-,N/A,,Clear,10,2012-12-05 06:55:00
1:15 AM,35.6,28.4,75,30.30,10.0,North,3.5,-,N/A,,Clear,10,2012-12-05 07:15:00
1:56 AM,39.2,30.2,70,30.29,10.0,Calm,Calm,-,N/A,,Clear,0,2012-12-05 07:56:00
2:15 AM,37.4,33.8,87,30.30,10.0,Calm,Calm,-,N/A,,Clear,0,2012-12-05 08:15:00
2:35 AM,35.6,30.2,81,30.29,10.0,Calm,Calm,-,N/A,,Clear,0,2012-12-05 08:35:00
3:15 AM,33.8,30.2,87,30.30,10.0,North,3.5,-,N/A,,Clear,360,2012-12-05 09:15:00
3:35 AM,35.6,30.2,81,30.30,10.0,NNE,4.6,-,N/A,,Clear,20,2012-12-05 09:35:00
3:55 AM,35.6,30.2,81,30.30,10.0,NE,3.5,-,N/A,,Clear,40,2012-12-05 09:55:00
4:16 AM,35.6,30.2,81,30.30,10.0,NE,5.8,-,N/A,,Clear,40,2012-12-05 10:16:00
4:35 AM,37.4,30.2,75,30.29,10.0,NE,4.6,-,N/A,,Clear,50,2012-12-05 10:35:00
4:55 AM,37.4,28.4,70,30.29,10.0,NE,5.8,-,N/A,,Clear,50,2012-12-05 10:55:00
5:16 AM,37.4,28.4,70,30.29,10.0,ENE,4.6,-,N/A,,Clear,60,2012-12-05 11:16:00
5:35 AM,37.4,30.2,75,30.30,10.0,North,3.5,-,N/A,,Clear,10,2012-12-05 11:35:00
5:55 AM,35.6,30.2,81,30.30,10.0,Calm,Calm,-,N/A,,Clear,0,2012-12-05 11:55:00
6:15 AM,35.6,30.2,81,30.30,10.0,NE,3.5,-,N/A,,Clear,40,2012-12-05 12:15:00
6:55 AM,33.8,28.4,81,30.30,10.0,Calm,Calm,-,N/A,,Clear,0,2012-12-05 12:55:00
7:36 AM,33.8,30.2,87,30.31,10.0,Calm,Calm,-,N/A,,Clear,0,2012-12-05 13:36:00
8:55 AM,44.6,35.6,71,30.31,10.0,Calm,Calm,-,N/A,,Clear,0,2012-12-05 14:55:00
9:15 AM,46.4,35.6,66,30.31,10.0,ESE,3.5,-,N/A,,Clear,120,2012-12-05 15:15:00
9:35 AM,48.2,35.6,62,30.31,10.0,SE,4.6,-,N/A,,Clear,130,2012-12-05 15:35:00
10:15 AM,53.6,33.8,47,30.31,10.0,SE,8.1,-,N/A,,Clear,140,2012-12-05 16:15:00
10:35 AM,53.6,33.8,47,30.31,10.0,SE,9.2,-,N/A,,Clear,140,2012-12-05 16:35:00
11:15 AM,55.4,30.2,38,30.29,10.0,SE,6.9,-,N/A,,Clear,130,2012-12-05 17:15:00
11:35 AM,57.2,32.0,38,30.27,10.0,SE,10.4,16.1,N/A,,Clear,130,2012-12-05 17:35:00
11:55 AM,57.2,30.2,36,30.26,10.0,ESE,10.4,-,N/A,,Clear,120,2012-12-05 17:55:00
12:35 PM,59.0,28.4,31,30.23,10.0,ESE,16.1,19.6,N/A,,Clear,120,2012-12-05 18:35:00
12:55 PM,59.0,28.4,31,30.23,10.0,ESE,13.8,-,N/A,,Clear,120,2012-12-05 18:55:00
1:15 PM,59.0,28.4,31,30.22,10.0,ESE,9.2,-,N/A,,Clear,120,2012-12-05 19:15:00
1:35 PM,60.8,28.4,29,30.20,10.0,SE,8.1,-,N/A,,Clear,130,2012-12-05 19:35:00
1:36 PM,60.8,28.4,29,30.20,10.0,SE,9.2,-,N/A,,Clear,140,2012-12-05 19:36:00
1:55 PM,60.8,28.4,29,30.20,10.0,ESE,8.1,-,N/A,,Clear,110,2012-12-05 19:55:00
2:15 PM,60.8,28.4,29,30.18,10.0,SE,10.4,-,N/A,,Clear,130,2012-12-05 20:15:00
2:55 PM,60.8,28.4,29,30.17,10.0,ESE,10.4,-,N/A,,Clear,120,2012-12-05 20:55:00
3:15 PM,59.0,28.4,31,30.16,10.0,ESE,6.9,-,N/A,,Clear,110,2012-12-05 21:15:00
3:35 PM,60.8,28.4,29,30.16,10.0,ESE,8.1,-,N/A,,Clear,110,2012-12-05 21:35:00
4:15 PM,57.2,26.6,31,30.16,10.0,East,5.8,-,N/A,,Clear,100,2012-12-05 22:15:00
4:55 PM,53.6,26.6,35,30.15,10.0,ESE,5.8,-,N/A,,Clear,110,2012-12-05 22:55:00
5:16 PM,53.6,26.6,35,30.15,10.0,ESE,5.8,-,N/A,,Clear,120,2012-12-05 23:16:00
5:35 PM,53.6,26.6,35,30.15,10.0,East,4.6,-,N/A,,Clear,100,2012-12-05 23:35:00
5:55 PM,53.6,26.6,35,30.14,10.0,ESE,6.9,-,N/A,,Clear,110,2012-12-05 23:55:00
6:16 PM,53.6,26.6,35,30.13,10.0,ESE,8.1,-,N/A,,Clear,110,2012-12-06 00:16:00
6:35 PM,53.6,28.4,38,30.11,10.0,ESE,10.4,-,N/A,,Clear,110,2012-12-06 00:35:00
6:55 PM,51.8,28.4,41,30.11,10.0,ESE,10.4,-,N/A,,Clear,120,2012-12-06 00:55:00
7:35 PM,51.8,30.2,44,30.11,10.0,SE,10.4,-,N/A,,Clear,130,2012-12-06 01:35:00
7:55 PM,50.0,30.2,47,30.11,10.0,SE,8.1,-,N/A,,Clear,130,2012-12-06 01:55:00
8:15 PM,48.2,30.2,50,30.10,10.0,SE,9.2,-,N/A,,Clear,130,2012-12-06 02:15:00
8:36 PM,48.2,30.2,50,30.10,10.0,SE,8.1,-,N/A,,Clear,130,2012-12-06 02:36:00
8:55 PM,48.2,32.0,54,30.09,10.0,SE,8.1,-,N/A,,Clear,130,2012-12-06 02:55:00
9:15 PM,48.2,32.0,54,30.08,10.0,SE,8.1,-,N/A,,Clear,140,2012-12-06 03:15:00
9:35 PM,48.2,32.0,54,30.09,10.0,ESE,5.8,-,N/A,,Clear,120,2012-12-06 03:35:00
9:56 PM,48.2,32.0,54,30.08,10.0,SE,5.8,-,N/A,,Clear,130,2012-12-06 03:56:00
10:15 PM,46.4,33.8,62,30.09,10.0,ESE,4.6,-,N/A,,Clear,120,2012-12-06 04:15:00
10:35 PM,44.6,32.0,61,30.08,10.0,ESE,6.9,-,N/A,,Clear,120,2012-12-06 04:35:00
11:15 PM,44.6,32.0,61,30.07,10.0,SE,6.9,-,N/A,,Clear,130,2012-12-06 05:15:00
11:35 PM,44.6,32.0,61,30.07,10.0,SE,5.8,-,N/A,,Clear,140,2012-12-06 05:35:00
11:55 PM,44.6,30.2,57,30.07,10.0,SE,4.6,-,N/A,,Clear,130,2012-12-06 05:55:00